Regional Weather Roundup
Issued by NWS

Home | Current Version | Previous Version | Text Only | Print | Product List | Glossary On
Versions: 1 2 3 4 5 6 7 8 9 10 11 12 13 14 15 16 17 18 19 20 21 22 23 24 25 26 27 28 29 30 31 32 33 34 35 36 37 38 39 40 41 42 43 44 45 46 47 48 49 50
000
ASUS43 KMKX 251521
RWRWI

WISCONSIN REGIONAL WEATHER ROUNDUP
NATIONAL WEATHER SERVICE MILWAUKEE/SULLIVAN WI
1000 AM CDT TUE JUL 25 2017

NOTE: "FAIR" INDICATES FEW OR NO CLOUDS BELOW 12,000 FEET WITH NO
SIGNIFICANT WEATHER AND/OR OBSTRUCTIONS TO VISIBILITY.

WIZ001-002-006>008-014>016-023>028-251600-
NORTHWEST WISCONSIN

CITY           SKY/WX    TMP DP  RH WIND       PRES   REMARKS
SUPERIOR ARPT  NOT AVBL
ASHLAND        MOSUNNY   70  61  73 S12       30.06F
HAYWARD        MOSUNNY   68  60  75 S15G21    30.06F
SIREN          CLOUDY    66  62  86 S13G22    30.04R
CUMBERLAND     PTSUNNY   63  59  88 S13       30.07R
RICE LAKE      PTSUNNY   64  60  88 SE12      30.10R
CHETEK         PTSUNNY   63  60  91 S10G22    30.09S
LADYSMITH      CLOUDY    66  58  76 SE12      30.12F
EAU CLAIRE     LGT RAIN  65  61  87 S13       30.10S
MENOMONIE      CLOUDY    67  62  86 NE9       30.09R
NEW RICHMOND   CLOUDY    68  60  76 S15       30.05F
OSCEOLA        CLOUDY    69  62  78 SE15      30.05F
$$

WIZ003>005-009-010-017-018-251600-
NORTH CENTRAL WISCONSIN

CITY           SKY/WX    TMP DP  RH WIND       PRES   REMARKS
MANITOWISH WTR CLOUDY    65  56  73 S13       30.14S
ARBOR VITAE    PTSUNNY   67  54  62 S13       30.15S
WOODRUFF       PTSUNNY   67  54  62 S13       30.15S
RHINELANDER    MOSUNNY   69  55  60 S8        30.18S
EAGLE RIVER    CLOUDY    66  50  55 S8        30.16S
LAND O LAKES   MOSUNNY   70  52  53 S8        30.17F
PHILLIPS       CLOUDY    65  55  69 S12       30.13F
TOMAHAWK         N/A     63  54  74 CALM      30.16F
MEDFORD        CLOUDY    64  53  66 S8        30.15S
MERRILL        CLOUDY    64  54  72 S3        30.17S
$$

WIZ029-030-035-036-043>047-251600-
CENTRAL WISCONSIN

CITY           SKY/WX    TMP DP  RH WIND       PRES   REMARKS
WAUSAU         LGT RAIN  63  53  70 SE10      30.14F
MOSINEE        PTSUNNY   63  55  77 SE6       30.17F
MARSHFIELD     CLOUDY    64  56  75 SE12      30.13F
STEVENS POINT  CLOUDY    67  53  61 S10G17    30.17F
WAUPACA        CLOUDY    72  57  60 SW9       30.18F
WAUTOMA        CLOUDY    72  61  68 S14       30.18F
WISC RAPIDS    CLOUDY    70  57  63 VRB7      30.17F
CAMP DOUGLAS   PTSUNNY   68  59  73 S7        30.16R
$$

WIZ011>013-019>022-031-037>040-048>050-251600-
NORTHEAST WISCONSIN

CITY           SKY/WX    TMP DP  RH WIND       PRES   REMARKS
ANTIGO         PTSUNNY   63  49  61 S8        30.18F
SHAWANO        CLOUDY    69  52  55 SW5       30.18S
OCONTO         MOSUNNY   68  57  67 SW6       30.18S
STURGEON BAY     N/A     71  59  65 S9        30.19F
GREEN BAY      PTSUNNY   68  61  78 S6        30.19S
MANITOWOC      MOSUNNY   72  58  61 S8        30.20R
APPLETON       MOSUNNY   66  54  63 SW8       30.19R
CLINTONVILLE   CLOUDY   N/A N/A N/A SW5       30.18F
OSHKOSH        PTSUNNY   70  60  70 S12       30.19R
$$

WIZ032>034-041-042-053>061-251600-
SOUTHWEST WISCONSIN

CITY           SKY/WX    TMP DP  RH WIND       PRES   REMARKS
LA CROSSE      LGT RAIN  68  63  84 S16       30.11F
SPARTA         PTSUNNY   67  60  78 S6        30.16R
VIROQUA        CLOUDY    65  62  92 S7        30.18R
BOSCOBEL       PTSUNNY   71  61  70 VRB6      30.17R
PRAIRIE DU CHI CLOUDY    70  60  70 SE5       30.15R
PLATTEVILLE    MOSUNNY   69  66  90 S9        30.19R
$$

WIZ056-057-062-063-064-067-068-251600-
SOUTH CENTRAL WISCONSIN

CITY           SKY/WX    TMP DP  RH WIND       PRES   REMARKS
REEDSBURG      CLOUDY    69  63  80 S7        30.19R
BARABOO/DELLS  CLOUDY    71  57  62 S12       30.19R
LONE ROCK      MOSUNNY   70  61  73 S8        30.18S
MINERAL POINT  MOSUNNY   70  64  83 S10       30.19R
MADISON        PTSUNNY   70  62  76 S12       30.18S
MIDDLETON      PTSUNNY   73  62  68 SW12G17   30.19F
WATERTOWN      MOSUNNY   71  64  78 S14       30.19S
MONROE         SUNNY     70  61  73 S13G20    30.18F
JANESVILLE     MOSUNNY   73  61  64 S10       30.18S
$$

WIZ051-052-058>065-066-070>072-251600-
SOUTHEAST WISCONSIN

CITY           SKY/WX    TMP DP  RH WIND       PRES   REMARKS
MILWAUKEE      PTSUNNY   72  63  73 S10       30.21R
WAUKESHA       MOSUNNY   68  61  77 SE12      30.20S
MILWAUKEE/TIMM MOSUNNY   73  55  53 S8        30.21S
RACINE         MOSUNNY   73  63  70 S13       30.22R
KENOSHA        SUNNY     73  58  59 S12       30.21R
FOND DU LAC    PTSUNNY   72  59  63 S13       30.18S
SHEBOYGAN      SUNNY     72  62  71 S9        30.20R
WEST BEND      MOSUNNY   72  61  68 SE9       30.20S
JUNEAU         MOSUNNY   70  61  74 S8G17     30.20S
$$

LSZ147-162-251600-
LAKE SUPERIOR

STATION/POSITION TIME  TEMP    WIND        PRES    WAVE
                       AIR SEA DIR/SP/G            HT/PER
                 (UTC) (F)     (DEG/KT/KT) (MB)    (FT/S)
W MID LAKE BUOY  1450   56 49  170/  8/ 10 1018.5F   1
DEVILS ISLAND    1500   68     180/  8/ 13 1017.6F
SAXON HARBOR     1440   71     200/ 10/ 18 1017.6F
$$

LMZ867-665-643>646-251600-
LAKE MICHIGAN

STATION/POSITION TIME  TEMP    WIND        PRES    WAVE
                       AIR SEA DIR/SP/G            HT/PER
                 (UTC) (F)     (DEG/KT/KT) (MB)    (FT/S)
CHAMBERS ISLAND  1440   70     140/  5/  9 1021.3F
S GREEN BAY BUOY 1500   67 72  220/  8/ 10 1021.8
N MID LAKE BUOY  1450   65 67  180/ 10/ 12 1022.7F   0
NORTHPORT PIER   1440   67     130/  8/ 10 1022.0S
KEWAUNEE LAKESHO 1454   68     170/  6/  7 1021.5R
SHEBOYGAN LAKESH 1500   66     160/  8/  9 1022.4R
PORT WASHINGTON  1430   69     160/  4/  5 1023.4R
ATWATER BUOY     1409   68 68  130/  4/  4 1022.7F
MILWAUKEE LAKESH 1500   68     130/  6/  7   N/A
S MID LAKE BUOY  1450   70 71  160/ 12/ 14 1022.9F   1/ 3
KENOSHA   LAKESH 1500   71     170/ 11/ 13 1022.7
$$

TC  - TEMPERATURE IN CELSIUS
VSB - VISIBILITY IN STATUTE MILES
WCI - WIND CHILL INDEX
HX  - HEAT INDEX




USA.gov is the U.S. government's official web portal to all federal, state and local government web resources and services.